Theta_e
324 325 325 323 323 324 327 328 328 328 330 331 331 332 333 333 332 331 332 331 328 331 333 332 331 330 330 329 329 329 329 329 327 325 325 324 323 323 323 323 323 322 320 316 315 316 317 318 320 322 324 326 328 329 329 329 329 329 329 328 328 328 327 328 329 330 331 331 331 331 331 331 331 331 330 330 331 331 331 330 329 329 329 328 328 328
324 324 323 321 320 320 322 326 328 328 329 329 330 332 332 332 332 330 332 333 329 329 332 330 330 330 328 329 329 328 328 327 327 327 326 325 323 322 322 323 323 322 321 318 317 316 316 317 318 318 320 323 325 326 328 329 329 329 329 329 328 328 327 327 328 328 329 329 330 330 330 330 330 330 330 330 330 330 330 329 329 329 329 328 328 328
326 326 324 320 319 319 320 324 327 327 328 328 329 330 331 331 331 329 329 331 327 328 333 332 331 329 327 329 329 329 328 326 326 327 326 325 324 323 323 323 323 324 324 323 321 317 316 317 318 317 317 319 321 323 325 327 328 329 329 329 329 328 328 327 327 327 327 328 328 329 329 329 329 330 330 329 329 329 329 329 329 329 329 328 328 328
325 325 324 322 320 319 319 323 326 327 326 327 328 329 330 330 331 331 329 328 327 329 334 333 330 328 327 328 327 326 327 325 326 327 326 326 325 324 324 323 323 324 324 325 323 320 317 316 317 317 317 318 319 320 323 325 326 328 328 329 329 329 328 328 328 327 327 327 328 328 328 329 329 329 329 329 329 329 328 328 328 329 328 328 328 328
323 323 323 323 322 320 320 323 325 326 326 326 326 326 327 327 329 331 329 327 327 327 328 328 329 329 327 328 326 325 326 325 325 325 325 325 324 324 325 324 324 324 323 324 324 323 320 318 317 318 319 319 318 319 321 322 324 326 327 328 329 329 329 328 328 328 328 328 328 328 328 328 328 328 328 328 328 328 328 328 328 328 328 328 327 327
321 323 324 323 323 322 321 322 324 325 325 324 325 325 325 326 328 329 328 327 330 331 327 327 332 332 326 328 328 326 326 325 323 324 324 323 323 323 323 323 323 323 324 324 323 323 322 319 318 319 319 318 317 319 321 321 322 324 325 327 328 328 329 329 329 328 328 328 328 328 328 328 327 327 328 328 328 328 328 328 328 328 328 327 327 327
319 322 325 323 323 323 322 322 322 323 325 324 324 324 324 326 328 328 328 328 330 331 327 327 333 333 328 328 328 327 327 326 324 324 324 323 322 322 322 321 322 322 323 323 323 322 321 318 317 318 319 319 319 321 323 322 320 322 323 324 326 327 328 328 329 329 328 328 328 328 328 328 327 327 327 328 328 328 327 328 328 327 327 327 327 327
319 320 323 323 322 323 323 323 321 322 325 323 322 326 326 325 327 327 328 329 329 329 327 327 330 333 330 327 327 329 329 327 325 324 324 323 322 322 322 322 322 322 322 323 323 323 322 319 317 318 319 320 321 322 323 322 321 321 321 322 324 326 327 328 328 329 329 328 328 328 328 327 327 327 328 328 327 327 327 327 327 327 327 327 327 327
319 319 320 322 323 323 323 322 322 322 323 322 323 328 328 325 326 327 328 328 327 328 330 328 328 332 330 325 327 331 329 326 325 324 324 323 323 324 323 323 323 322 322 322 322 323 322 319 318 318 320 321 322 322 322 322 322 322 321 322 323 324 326 327 328 329 329 329 329 328 328 327 328 328 328 328 327 327 327 327 327 327 327 327 326 327
320 320 317 319 322 324 323 321 322 323 323 324 327 329 328 326 326 327 328 328 326 326 330 328 327 330 329 324 325 328 327 325 324 323 323 323 324 326 325 325 324 323 323 323 323 323 321 319 319 320 320 321 322 322 322 322 321 320 320 320 321 322 324 325 326 328 329 329 329 328 328 328 328 328 327 328 327 327 327 327 327 327 327 326 326 326
318 318 316 317 320 322 322 323 322 322 322 325 327 327 328 327 325 325 324 325 327 328 328 326 326 329 329 325 323 325 324 323 322 323 323 323 325 326 326 325 325 324 323 323 323 322 319 317 318 319 319 319 320 321 320 320 320 320 320 320 320 321 321 323 324 326 328 329 329 329 328 328 328 328 327 327 327 327 327 326 326 327 326 326 326 326
315 316 317 318 319 319 322 324 321 319 321 324 326 326 327 326 324 325 322 322 327 329 327 324 324 327 329 326 321 322 322 321 322 322 322 324 326 325 324 324 324 323 323 323 323 323 320 319 318 317 317 318 318 319 318 319 319 319 319 320 320 320 321 322 322 324 326 327 328 329 328 328 328 328 327 327 327 327 326 326 326 326 326 325 325 325
315 315 317 318 319 319 320 323 320 318 321 324 325 325 327 326 326 327 326 325 327 328 326 324 323 326 327 324 321 324 324 322 323 322 322 324 324 324 324 324 323 323 323 322 323 323 322 322 320 317 316 317 317 317 318 318 319 319 319 319 319 320 320 321 321 323 324 326 327 328 328 328 328 328 328 327 327 327 327 327 326 326 326 325 325 325
315 314 316 318 318 319 319 320 321 320 322 323 323 325 326 327 329 328 327 327 325 325 325 324 326 326 325 323 322 322 323 324 324 324 323 324 324 323 323 322 323 323 323 322 322 322 322 323 320 316 316 317 316 317 318 318 318 318 318 318 318 319 319 320 320 321 323 324 326 326 327 328 328 328 328 328 328 327 327 327 326 326 326 325 325 325
315 314 315 317 318 319 318 317 319 320 322 322 321 323 324 325 325 324 324 325 324 325 325 324 326 327 328 329 326 323 323 323 322 322 322 323 324 323 322 322 323 322 321 322 322 322 322 321 316 314 315 316 316 316 316 317 317 317 317 317 317 318 318 319 319 320 321 322 324 325 326 327 328 328 328 328 328 327 327 327 327 326 326 326 325 325
313 313 314 314 317 319 318 316 317 319 321 321 320 322 323 322 320 319 322 324 324 325 325 324 326 328 328 327 323 322 324 323 322 321 321 322 322 322 322 323 322 321 320 321 321 321 321 317 313 313 314 314 314 315 315 316 316 316 316 317 316 317 318 318 318 319 320 321 322 324 325 326 327 327 328 328 328 327 328 327 327 327 326 326 326 325
313 313 313 314 316 319 318 318 317 317 319 320 321 322 322 321 320 319 321 322 322 322 323 324 327 327 325 323 320 319 322 323 323 323 321 322 321 321 322 321 320 320 319 319 320 319 319 316 312 312 312 312 313 314 314 315 315 315 315 315 316 316 316 317 318 318 319 320 321 322 324 325 326 327 327 327 328 327 327 327 327 327 326 326 326 326
313 312 312 313 315 316 317 320 319 317 320 322 322 321 320 320 321 321 321 321 320 321 322 323 325 324 323 325 323 320 320 321 322 323 322 322 322 321 321 320 319 319 319 319 318 317 318 316 311 310 312 313 313 314 314 315 316 315 315 315 315 315 316 316 317 317 318 318 320 321 322 324 325 326 327 327 327 327 327 327 327 327 327 327 326 326
312 311 311 312 315 316 316 320 321 319 319 319 319 320 320 320 321 321 320 322 322 321 320 319 320 320 321 323 323 321 320 319 319 321 322 321 322 321 319 319 318 318 318 318 317 316 318 317 311 309 312 313 314 314 314 315 315 315 316 315 315 315 315 316 316 316 317 318 318 319 320 322 324 325 326 326 327 327 327 327 327 327 327 327 327 326
311 311 311 310 312 316 318 319 321 321 319 317 318 320 320 319 320 322 320 320 322 321 320 319 317 317 317 317 317 317 316 315 317 321 323 322 321 320 319 319 318 318 317 317 317 319 322 320 312 310 313 313 313 314 314 314 315 315 316 316 315 315 315 315 315 315 316 317 318 318 319 320 322 323 325 325 326 327 327 327 327 327 327 327 327 326
311 309 311 310 309 314 318 318 317 319 319 319 319 320 320 318 319 322 320 319 320 319 318 319 317 316 318 318 315 316 314 313 316 321 323 323 321 319 319 318 318 319 319 319 321 323 325 321 311 309 312 312 312 313 314 315 315 315 316 315 315 315 314 315 315 315 316 316 317 318 318 319 320 322 323 324 325 326 326 327 327 327 327 327 327 326
312 309 310 312 311 314 317 316 315 317 318 318 318 318 319 318 318 320 319 319 321 319 317 318 315 318 326 323 314 313 315 314 317 319 319 319 319 318 318 318 319 321 322 324 324 322 324 320 311 308 310 310 311 313 314 315 315 315 315 315 314 313 313 314 315 315 316 316 316 317 317 318 319 320 321 323 324 325 326 326 326 327 326 326 327 326
313 313 311 312 313 314 314 312 312 316 316 317 318 318 318 318 318 318 318 318 321 319 317 318 316 319 330 331 322 321 320 317 319 321 320 320 319 318 318 319 321 322 322 322 318 316 319 315 307 306 308 309 311 313 314 315 315 315 315 314 314 313 313 313 314 315 315 315 316 316 317 317 318 319 320 321 322 323 324 325 325 326 326 326 326 326
312 313 310 311 313 313 314 313 312 313 315 316 317 317 317 318 318 317 317 317 319 319 318 320 318 318 325 331 329 328 324 317 318 322 325 326 324 322 320 321 322 322 321 320 317 317 318 312 308 309 308 308 310 312 313 314 314 314 314 314 313 312 313 312 313 314 315 315 315 316 317 317 317 318 319 319 321 322 323 324 324 325 325 326 326 326
310 310 309 311 312 311 313 314 313 313 315 316 316 316 317 317 317 317 318 318 319 320 319 320 318 318 325 329 323 320 319 315 317 322 324 324 325 325 323 321 322 321 320 321 320 321 320 316 316 316 308 306 309 310 311 313 313 314 314 313 313 312 312 312 312 313 313 314 315 315 316 317 317 318 318 319 319 320 321 322 323 323 324 325 325 325
311 311 309 310 310 310 311 312 312 312 314 315 315 315 315 316 317 318 319 320 320 320 320 319 318 319 325 325 318 316 317 315 315 320 322 320 322 325 324 322 321 319 318 319 317 318 319 317 319 318 308 305 308 309 310 312 313 313 313 312 312 312 312 312 312 311 311 312 314 315 315 316 317 317 318 318 319 319 320 321 321 322 323 323 324 325
311 311 309 308 309 309 309 309 311 314 315 315 315 314 314 315 316 317 318 318 319 320 320 318 318 318 319 318 316 315 315 314 313 314 316 317 319 322 323 322 320 319 319 319 318 319 321 319 319 318 311 306 308 309 309 311 311 311 311 312 312 312 312 312 311 311 311 310 311 313 313 314 315 316 316 317 318 318 319 319 320 321 322 323 323 324
311 310 309 309 309 308 307 309 313 315 314 314 315 314 314 314 314 316 316 316 316 317 317 316 316 317 316 314 314 313 312 312 312 310 310 313 316 316 315 315 317 318 318 319 318 319 319 318 318 318 313 307 308 309 309 309 310 310 311 312 313 312 312 311 311 311 311 310 309 310 310 311 312 312 313 314 315 316 316 317 317 318 319 321 322 323
311 311 310 310 310 309 308 311 315 315 313 314 314 314 314 314 313 314 315 315 314 315 315 313 313 314 313 312 312 311 311 311 310 310 311 313 315 314 313 315 317 318 317 317 316 316 316 316 316 317 314 308 307 308 309 309 310 310 312 313 313 312 312 311 310 310 311 310 309 309 309 309 309 310 310 310 311 312 313 314 315 315 316 317 319 321
310 312 311 311 311 310 310 312 314 314 313 314 314 314 314 314 314 314 314 314 314 314 313 312 313 312 311 311 311 310 311 312 312 313 315 316 316 315 316 318 318 318 318 317 316 315 315 316 315 315 314 309 307 308 309 309 309 310 311 313 313 312 311 310 310 310 310 310 309 309 309 309 309 309 309 309 309 309 310 310 311 312 313 314 315 317
309 312 311 311 311 311 310 311 313 313 313 313 313 312 313 313 314 314 314 314 314 314 314 314 314 313 311 311 311 310 311 314 315 315 314 314 314 314 316 317 316 316 316 316 316 315 315 315 314 314 314 311 308 308 309 309 309 309 310 312 313 312 310 310 309 309 310 310 310 309 309 309 309 309 309 309 310 310 310 310 310 310 311 311 312 313
308 311 311 310 311 311 310 311 311 310 310 311 311 311 312 313 313 314 314 314 314 315 315 315 315 314 312 311 312 312 312 314 314 313 313 313 313 313 314 315 314 314 314 314 315 314 314 314 313 313 312 310 307 308 308 308 308 308 310 312 312 310 309 309 308 308 309 309 309 309 309 309 308 309 309 310 311 312 312 312 313 313 313 312 313 313
308 310 310 309 311 311 310 311 310 308 310 311 311 311 311 312 312 313 313 314 314 314 315 315 314 313 312 313 313 313 313 313 313 312 312 313 312 312 313 314 314 313 313 313 313 313 313 312 312 311 309 308 307 308 308 308 308 309 310 311 310 309 309 308 308 307 307 307 307 307 307 307 307 308 308 309 310 311 313 314 315 315 315 315 315 315
308 309 309 309 311 311 308 309 310 310 312 312 310 309 310 309 310 311 312 312 313 313 313 314 313 313 313 313 313 313 313 312 313 312 312 312 312 311 312 312 313 312 311 310 311 312 312 311 310 308 307 307 307 307 308 308 308 309 309 308 307 307 307 307 306 306 305 305 305 305 305 306 306 307 307 307 308 309 310 312 313 314 315 316 316 315
308 309 309 309 310 308 306 308 311 312 312 312 311 311 309 308 309 310 310 310 310 311 313 313 313 313 313 312 311 312 312 311 311 310 310 310 309 309 309 309 309 309 309 308 309 310 310 310 309 305 305 306 306 306 306 306 307 308 307 306 305 305 305 305 304 304 303 303 302 302 303 304 305 306 306 307 307 307 307 308 310 311 312 313 313 313
308 309 309 309 309 307 306 309 311 311 311 310 311 310 309 310 310 310 309 309 308 309 311 312 312 311 311 311 310 310 310 310 309 308 308 308 307 307 308 308 307 308 308 308 309 308 307 306 306 304 303 304 304 304 305 305 305 305 304 304 303 303 303 303 302 302 301 301 301 301 302 303 304 305 306 306 306 306 306 307 307 308 308 309 310 311
308 309 309 309 309 308 309 310 310 310 309 309 308 308 308 309 310 309 309 309 307 308 308 309 309 309 309 309 308 308 308 308 308 308 307 307 308 308 308 308 307 308 309 307 305 304 304 303 302 303 302 302 302 302 302 302 302 302 302 301 301 301 301 301 300 300 300 299 300 300 300 301 303 304 305 305 305 305 306 306 306 306 306 306 307 308
306 308 309 310 309 308 309 310 310 311 309 307 306 307 307 309 310 309 309 308 307 307 307 307 308 307 308 308 307 309 311 310 308 308 308 311 312 311 311 311 312 311 308 304 302 301 301 301 301 301 300 300 300 299 298 299 299 299 299 298 298 298 299 299 298 298 298 298 298 298 299 299 300 302 303 303 304 304 304 304 304 305 305 305 305 305
304 305 307 309 308 307 309 310 309 310 308 307 308 308 308 310 310 309 310 309 308 308 307 307 307 307 307 307 307 310 311 310 309 307 308 312 315 314 314 316 316 310 302 298 299 299 298 298 298 298 298 297 297 296 296 297 297 296 296 295 295 296 295 295 294 295 296 296 297 297 297 298 299 299 300 301 301 301 302 302 302 302 303 303 303 303
305 304 304 307 308 307 308 309 309 308 307 309 310 308 306 307 308 309 310 309 308 309 309 307 307 308 307 307 308 310 310 309 308 307 309 313 313 312 312 312 313 310 301 295 296 297 295 296 296 296 295 295 294 294 294 294 294 294 294 293 294 294 293 292 292 293 294 294 295 296 297 297 297 298 298 299 299 299 299 300 300 300 300 301 301 301
306 305 304 306 308 308 308 309 309 308 308 311 310 307 305 307 308 309 309 308 309 312 309 306 307 308 307 308 309 308 308 308 306 307 311 311 308 308 308 304 300 298 295 293 294 295 295 295 295 294 293 293 293 293 293 293 293 293 292 293 293 292 292 292 292 292 292 293 294 295 295 296 296 296 297 297 297 298 298 298 298 299 299 299 299 299
307 306 305 306 308 308 308 308 308 308 308 308 307 304 306 308 308 308 308 308 313 317 310 306 309 309 307 307 308 306 307 308 308 308 309 307 305 306 309 307 301 297 294 293 293 294 294 293 293 292 292 292 293 293 293 293 293 292 291 292 291 291 291 291 292 292 292 292 293 293 294 294 295 295 295 295 296 296 296 296 297 297 297 297 297 297
307 307 306 306 306 307 307 308 308 309 307 305 304 304 306 308 308 309 309 307 310 318 316 310 311 312 309 309 309 308 307 308 308 309 309 305 304 304 305 306 305 301 296 293 293 293 293 292 290 290 291 291 292 292 293 293 292 291 291 291 290 291 291 291 291 291 292 292 292 292 293 293 293 294 294 295 295 295 295 295 295 296 296 296 296 295
307 307 307 306 305 306 308 308 308 306 304 303 304 305 306 307 307 307 307 304 305 314 319 316 314 313 311 313 315 312 309 310 311 311 310 306 303 303 303 303 302 298 294 291 291 292 292 290 289 289 290 291 291 291 292 292 292 291 290 290 290 291 292 291 291 291 291 291 291 291 291 292 292 293 293 294 295 295 294 294 294 294 294 294 294 294
307 306 307 307 306 306 307 306 304 303 302 302 305 306 305 305 309 312 312 310 310 311 312 316 319 316 310 312 315 313 312 312 312 311 309 306 303 302 301 301 298 294 292 291 290 291 291 290 289 289 289 289 290 290 290 291 291 290 289 289 290 291 291 291 291 291 291 291 291 291 291 291 291 292 292 293 293 293 293 293 293 292 292 292 292 292
305 305 307 308 307 305 305 304 303 302 302 302 305 309 307 306 310 314 314 315 316 313 311 315 320 319 313 310 310 311 313 313 311 310 308 304 301 299 298 298 294 291 290 290 289 290 290 289 288 288 288 288 289 289 290 290 290 289 288 289 290 290 290 290 290 290 290 290 290 290 290 290 290 290 290 291 292 292 292 292 291 291 291 291 291 291
303 304 305 306 307 306 305 305 304 303 303 302 303 307 308 308 309 311 312 313 315 314 312 313 315 315 312 309 309 311 312 310 309 309 307 304 301 299 297 296 294 291 290 290 290 289 289 288 288 287 287 287 288 288 288 289 289 289 289 289 290 290 289 289 289 289 289 288 288 288 288 288 288 289 289 289 290 291 291 291 291 290 290 290 291 291
303 303 304 305 305 305 305 307 307 305 303 303 303 304 306 308 309 309 308 310 312 311 310 310 310 309 309 308 308 308 309 307 306 307 306 303 300 297 295 295 293 291 289 289 289 289 289 288 288 287 287 287 286 286 286 287 287 288 289 289 289 290 289 289 288 288 288 287 287 287 287 287 287 287 288 288 288 289 290 290 290 290 289 289 290 290
302 302 304 305 304 304 304 306 306 304 302 302 302 302 304 306 309 309 305 303 306 308 307 306 305 305 306 308 306 304 305 306 305 304 303 301 298 295 293 293 291 289 288 289 289 289 288 288 287 287 286 286 285 284 284 284 285 286 287 288 289 289 289 288 288 287 287 286 286 286 286 286 287 287 287 287 288 288 288 288 289 288 288 289 289 290
302 302 303 304 303 303 303 303 303 303 304 304 302 303 304 305 306 306 305 304 306 307 307 307 304 301 301 303 302 302 304 306 303 300 300 299 297 294 292 290 289 287 287 288 289 288 288 287 286 286 285 284 283 283 283 283 283 284 285 286 288 289 289 288 288 287 286 285 285 284 285 285 286 286 287 287 287 287 288 288 288 287 287 288 289 289
302 302 302 303 303 303 303 305 304 302 305 306 305 304 305 304 305 305 305 306 308 307 306 307 307 304 303 302 299 298 302 304 301 299 299 297 294 291 289 288 289 287 286 287 287 287 286 287 286 285 284 283 282 281 281 281 281 282 283 284 285 286 288 288 286 285 284 284 283 283 283 283 284 284 285 285 285 285 286 287 287 287 287 287 287 288
Wind_Speed
7 7 8 10 13 15 15 12 12 7 3 5 3 3 7 7 7 4 3 5 2 2 6 10 12 11 10 10 11 13 9 7 7 7 7 8 8 8 9 9 9 9 10 15 18 18 20 26 28 28 28 28 29 31 33 33 35 36 37 36 37 37 36 35 35 35 35 36 35 34 36 40 41 41 40 41 43 44 44 44 42 42 43 42 42 42
7 9 12 15 17 15 13 10 9 9 10 9 2 2 5 8 8 4 4 6 2 3 6 5 8 12 9 7 8 10 11 10 8 8 9 10 9 8 8 10 10 8 8 11 14 17 20 23 26 26 25 25 27 31 32 33 36 37 36 38 38 37 35 37 38 38 39 40 38 37 40 42 41 40 40 42 43 43 43 42 41 42 43 43 43 44
9 11 15 18 14 10 9 9 9 10 11 9 4 4 5 3 3 2 2 4 2 3 5 3 7 11 8 7 9 9 11 12 9 10 11 11 11 10 8 9 10 9 9 10 12 15 18 22 24 23 23 26 29 31 31 32 35 35 34 37 38 36 36 39 40 40 42 43 41 41 41 39 38 38 39 40 40 40 40 40 41 43 43 44 45 44
10 11 16 15 10 10 9 7 8 8 9 8 7 7 7 3 2 2 2 2 4 5 4 2 6 9 6 7 8 9 11 12 9 10 11 10 12 13 12 10 10 11 11 12 11 12 15 19 21 21 24 27 28 29 30 32 34 35 36 38 38 37 38 40 40 42 44 41 39 40 39 36 34 33 33 34 36 37 37 39 41 43 45 45 44 44
10 8 10 11 10 12 10 6 8 9 8 11 11 11 11 7 3 1 2 1 2 4 2 2 6 9 8 9 9 7 8 12 12 11 10 11 12 12 12 11 11 11 11 12 13 12 11 14 19 23 25 25 26 29 32 34 34 34 35 37 37 36 38 40 41 42 41 37 35 34 33 31 29 29 29 30 34 36 37 40 43 45 45 44 44 43
12 7 8 13 13 12 11 8 11 11 8 10 12 14 15 10 5 2 1 1 2 5 3 2 5 10 9 10 10 7 8 11 12 13 15 14 12 11 11 11 11 10 10 11 13 13 11 14 19 23 24 24 25 30 34 35 34 32 33 34 35 35 37 38 40 40 37 35 35 32 30 30 29 29 32 36 39 38 39 43 44 43 42 42 43 43
8 7 7 13 14 13 12 11 13 12 8 8 9 13 14 9 9 8 4 3 4 5 2 3 5 10 9 9 10 7 9 14 13 14 19 17 12 11 11 11 11 10 11 11 12 13 12 14 16 20 24 25 27 32 33 32 31 31 32 34 34 35 36 38 38 37 35 35 36 35 35 36 34 33 37 43 43 39 40 41 40 39 39 41 42 42
7 10 8 10 13 13 12 11 12 12 9 8 5 9 11 12 14 12 6 4 5 3 2 1 5 7 11 12 8 8 10 13 13 16 19 16 12 12 11 10 11 11 12 12 13 14 14 14 15 19 25 28 30 32 31 30 31 31 32 33 33 33 35 37 36 35 35 36 37 38 38 38 38 39 43 44 39 36 37 36 37 38 38 40 40 42
8 13 12 10 10 10 10 10 10 11 9 8 4 9 10 13 13 10 6 6 5 4 5 5 5 5 12 13 5 6 10 13 14 16 17 15 12 10 11 11 11 12 12 12 13 14 14 15 18 21 26 29 31 31 31 32 32 31 30 30 30 31 33 34 35 35 35 37 39 39 38 38 40 42 45 43 35 32 34 34 36 37 37 39 40 42
4 9 12 10 8 7 10 11 11 13 11 5 6 6 2 4 7 7 7 7 5 5 8 9 9 7 12 13 6 3 9 14 12 11 13 14 11 9 10 11 11 11 10 11 11 12 14 17 21 22 24 28 30 31 32 31 30 28 28 28 29 31 32 34 34 35 36 38 39 39 39 40 41 42 42 40 35 32 32 33 35 36 38 39 40 42
2 2 6 7 7 7 7 6 8 13 11 5 7 4 3 3 2 2 3 4 6 7 11 14 16 12 11 14 10 7 10 11 8 8 10 10 9 9 9 9 10 10 9 9 9 10 13 19 24 23 23 27 30 31 30 28 28 27 28 28 29 32 33 34 35 35 37 39 40 41 42 43 44 43 40 37 35 35 34 34 36 38 38 38 39 40
4 2 3 3 5 6 6 3 1 4 7 6 6 5 1 0 1 0 1 3 6 8 12 17 18 15 12 14 8 6 10 11 8 9 10 9 10 11 10 9 10 10 9 9 8 8 10 14 19 21 23 27 29 28 27 27 28 28 29 28 30 33 34 34 35 36 38 39 40 43 44 44 45 44 41 38 38 38 36 37 39 38 36 36 37 37
7 5 3 3 2 6 8 6 0 4 6 6 5 6 5 4 4 5 4 4 6 7 8 11 14 13 12 16 13 7 9 10 8 9 10 11 12 10 10 11 10 9 9 9 8 8 8 10 12 15 20 24 24 24 24 25 26 28 29 28 30 34 35 35 36 37 38 39 41 42 44 45 46 45 43 41 41 41 39 39 39 38 37 35 35 37
4 6 5 3 3 5 10 9 6 3 7 9 7 7 8 5 5 7 6 6 8 9 8 6 10 9 7 11 18 18 15 11 9 9 10 10 11 10 10 10 8 8 9 8 8 8 9 9 10 13 19 21 20 22 22 22 23 25 27 28 30 34 35 34 35 37 37 39 41 42 44 46 45 45 44 44 43 43 42 40 40 40 39 37 37 40
8 7 7 9 5 7 13 13 10 7 7 10 7 6 7 6 6 7 6 6 7 5 4 3 6 6 5 6 10 13 11 11 14 13 8 8 9 8 7 6 7 8 8 7 8 9 10 11 13 15 19 20 19 19 20 21 23 25 28 30 31 34 36 34 35 36 37 39 41 42 44 45 45 45 45 44 45 44 43 42 41 41 41 40 40 42
10 7 7 14 9 8 13 12 8 7 6 6 5 7 9 8 8 6 2 3 2 2 1 3 4 4 4 6 7 7 5 6 12 13 10 10 9 7 6 7 8 8 7 8 8 10 12 13 14 16 18 19 18 18 20 23 25 27 30 32 33 35 36 36 36 36 37 39 40 41 43 44 44 44 43 43 44 44 45 45 43 42 41 40 40 40
8 6 3 8 8 9 13 11 9 9 7 4 5 8 6 4 6 6 4 2 2 4 3 4 4 3 3 7 9 10 6 4 7 8 8 10 8 7 8 10 9 8 8 8 9 11 12 11 13 15 15 16 18 20 23 26 27 28 29 31 32 34 35 36 37 37 38 38 38 40 41 42 43 44 44 45 45 45 45 45 43 41 40 40 40 40
7 5 1 5 10 10 6 7 8 8 7 5 8 10 3 3 2 2 3 3 4 7 5 5 6 4 5 6 7 9 9 7 8 7 6 7 7 7 9 10 11 9 9 10 10 11 10 8 10 13 15 18 21 23 25 26 26 27 28 29 30 32 34 35 36 37 38 37 37 39 40 42 43 44 45 46 46 45 43 43 42 41 40 41 41 41
6 4 4 3 8 5 5 7 6 7 3 2 5 8 5 1 3 5 4 4 6 7 6 8 10 6 6 5 4 8 11 9 8 7 6 7 7 8 9 11 11 10 9 9 8 7 7 7 10 14 19 21 22 22 23 24 24 25 27 27 28 30 32 33 34 36 37 36 37 38 40 41 42 44 44 45 45 43 42 43 43 41 41 42 41 41
6 6 4 2 2 3 6 6 7 7 3 0 2 4 3 3 5 7 5 3 6 7 6 9 10 7 7 7 7 12 16 12 6 5 7 10 10 10 10 10 10 10 9 7 5 5 7 9 13 17 19 18 18 20 21 22 23 24 26 26 27 29 29 30 31 33 35 36 37 38 39 40 40 41 42 43 43 42 43 44 43 42 42 41 40 40
4 6 5 1 2 2 6 7 11 14 9 4 4 5 5 4 1 2 3 3 5 6 5 7 8 5 4 5 9 14 17 14 7 8 9 10 12 12 11 11 9 7 7 6 5 7 8 9 13 16 15 15 16 19 20 21 22 23 25 26 27 28 28 29 29 29 31 34 35 36 37 37 37 38 39 41 41 41 43 43 42 42 42 41 40 39
3 6 6 2 1 4 6 6 8 11 10 8 6 7 8 7 4 2 5 4 3 5 6 7 8 6 4 4 7 10 12 9 5 7 9 9 11 11 10 9 7 5 6 7 6 7 7 7 9 12 14 14 15 18 20 20 21 23 25 27 27 27 28 28 27 28 29 31 32 34 35 35 36 36 37 38 39 40 42 42 42 42 40 40 40 39
3 3 3 3 3 4 4 2 2 3 7 7 7 7 7 7 6 7 9 6 4 6 7 7 8 6 4 4 5 7 7 3 2 6 7 7 9 10 9 7 6 6 7 7 6 6 6 6 9 12 14 15 16 18 19 20 21 22 25 26 27 27 28 27 26 26 27 28 30 32 33 33 33 34 35 36 37 39 41 42 42 41 39 40 40 39
1 2 4 2 1 1 4 4 3 2 4 5 6 8 9 10 11 11 9 5 4 6 6 7 8 5 3 4 4 5 4 2 3 5 6 7 7 7 8 7 6 6 7 6 5 5 5 6 8 9 11 14 16 18 19 20 21 22 23 24 25 26 26 25 24 24 24 25 27 28 29 29 29 30 32 34 36 37 39 40 40 39 38 39 39 38
6 5 6 3 2 0 2 3 3 2 4 7 9 12 14 15 15 11 6 3 4 6 8 7 8 6 4 4 4 5 4 3 5 6 6 6 6 5 6 6 6 6 6 6 6 6 6 7 7 7 9 13 16 18 19 20 21 21 21 22 22 24 24 22 20 21 21 22 23 25 25 25 25 27 29 32 34 36 37 37 36 36 36 37 37 37
7 6 7 7 8 7 7 7 7 7 6 4 6 12 15 15 15 11 6 6 5 6 8 7 5 5 6 7 7 7 7 7 7 6 5 5 5 5 5 5 6 6 6 6 7 7 7 7 7 8 9 13 16 17 19 20 21 21 20 19 18 20 22 21 18 18 19 19 20 22 21 20 21 23 25 28 30 32 32 33 33 33 34 35 35 36
3 5 8 11 11 11 12 12 8 7 7 6 9 14 15 15 16 12 6 7 7 6 8 8 7 8 10 12 12 10 9 10 10 9 6 4 5 6 7 7 7 6 7 8 8 8 8 9 10 9 9 11 14 16 17 19 20 20 20 20 19 18 20 20 18 17 16 16 18 19 19 18 18 19 21 24 26 27 28 28 29 30 32 32 33 34
3 6 11 12 14 15 12 8 5 8 9 12 13 15 15 14 14 13 11 12 9 7 10 11 10 12 14 17 17 15 13 12 13 14 10 6 6 7 7 8 8 8 9 9 9 10 10 10 10 10 10 13 16 18 19 21 22 22 23 25 24 21 19 19 17 16 15 14 15 16 16 15 15 17 18 20 22 23 24 25 26 27 28 29 30 33
4 8 12 13 16 18 12 5 6 9 9 10 12 15 15 12 13 15 16 17 13 10 11 13 15 17 17 18 18 16 14 14 14 13 11 9 7 5 3 5 7 9 10 10 10 10 9 9 9 9 10 13 18 22 24 26 27 26 27 28 27 23 20 19 17 15 14 12 12 12 12 12 12 13 15 16 18 19 20 21 22 23 24 26 28 30
3 8 12 12 14 18 13 6 6 8 7 8 11 14 14 13 15 16 16 17 18 15 14 16 18 18 14 14 17 16 12 9 9 9 8 9 7 4 4 6 8 9 9 10 10 8 8 9 10 11 11 13 18 22 25 26 27 26 27 29 28 24 21 19 17 16 14 11 10 10 9 9 9 10 11 12 13 14 15 16 18 19 21 23 25 26
3 6 9 10 9 14 12 8 7 7 7 7 7 8 10 11 12 15 15 16 16 16 16 16 16 14 12 12 16 16 9 6 8 10 10 10 8 6 6 7 8 9 9 10 10 10 11 12 13 14 14 14 18 22 25 26 26 25 25 27 27 24 22 19 17 17 14 11 9 8 8 7 8 8 8 9 10 11 11 12 13 15 17 19 21 23
5 4 3 6 7 11 11 10 8 5 3 3 4 4 9 12 13 15 15 15 15 14 15 15 13 13 14 13 13 14 12 10 13 15 13 12 9 6 6 9 10 10 10 11 12 13 14 14 14 15 15 16 20 22 25 27 25 23 24 24 23 22 21 19 16 15 13 9 7 7 7 7 7 7 7 8 9 9 9 10 11 12 13 15 17 19
6 5 3 5 7 9 8 9 8 5 2 5 7 10 13 15 14 13 12 13 15 14 12 13 13 14 15 11 10 14 15 13 14 15 13 11 9 6 8 11 11 11 11 12 12 12 12 12 12 13 16 19 22 25 27 27 25 24 24 22 21 20 19 17 13 11 10 7 5 5 5 5 5 6 6 7 8 9 9 9 10 10 11 12 14 16
7 9 5 5 6 6 4 8 8 5 6 8 10 15 18 15 12 10 10 12 14 12 11 11 11 12 13 13 13 15 15 12 12 13 10 7 8 9 10 10 10 11 11 9 8 9 10 11 12 15 20 24 27 28 29 27 26 26 25 22 20 18 16 14 11 9 8 6 4 3 2 3 3 3 4 5 6 7 8 9 9 9 9 10 11 12
10 10 5 3 4 3 3 7 6 6 8 7 5 9 14 14 12 11 12 15 15 13 12 14 14 14 15 16 14 11 11 12 11 11 10 10 11 12 11 11 11 11 9 7 8 10 11 11 11 15 22 26 26 26 26 25 24 24 23 21 19 17 14 12 10 8 6 4 3 2 1 1 1 1 2 3 4 5 6 8 8 7 7 7 8 9
9 9 4 2 3 2 3 6 7 4 2 3 2 1 5 10 13 13 16 19 16 13 13 16 17 18 18 15 11 8 9 9 8 10 13 14 13 11 10 11 11 10 8 9 11 11 11 13 14 17 21 24 23 22 22 21 20 21 22 20 17 14 12 10 8 7 5 4 3 3 2 2 2 2 2 2 2 3 5 5 5 4 5 5 5 6
8 8 6 4 4 3 4 6 4 3 4 5 7 5 7 11 13 13 13 15 14 13 14 16 19 21 17 14 13 10 6 4 7 12 17 15 12 10 9 10 10 9 10 11 12 13 15 16 17 18 20 21 20 19 18 18 17 18 18 16 13 11 9 8 6 5 5 4 3 3 2 1 2 3 3 2 2 2 2 2 2 2 3 3 4 4
7 8 9 8 4 3 4 4 2 1 7 12 12 8 8 9 9 10 7 11 12 15 18 18 21 21 17 16 16 9 1 0 8 14 12 7 6 5 5 7 7 7 8 9 11 14 16 16 15 15 15 16 16 14 14 15 15 14 12 10 8 7 5 4 4 4 3 3 4 3 2 2 2 3 4 4 4 3 3 3 3 2 2 0 2 4
6 2 4 8 4 3 5 6 4 6 11 12 9 6 8 10 10 11 6 10 11 13 16 18 19 19 17 17 13 5 5 4 12 13 6 5 5 4 3 4 6 6 7 8 9 12 14 12 11 10 9 10 10 10 10 11 10 8 6 4 3 2 4 5 6 5 4 3 3 3 3 3 2 3 4 5 5 5 5 5 6 6 5 5 4 3
8 2 2 6 6 6 7 6 3 5 9 7 6 7 8 11 13 12 5 10 8 11 14 17 19 19 18 14 7 6 7 10 13 10 3 5 3 2 4 5 7 5 6 7 8 9 10 8 7 5 5 6 6 6 6 5 3 2 0 1 3 5 7 7 6 6 5 5 5 5 6 6 6 6 6 7 7 7 7 7 8 8 8 8 8 8
6 4 3 6 8 9 10 8 3 4 7 6 5 7 10 12 10 9 9 7 6 8 9 13 15 15 14 10 6 6 9 12 13 8 1 5 1 3 4 6 6 6 7 6 6 6 5 4 3 2 3 4 3 3 3 0 2 3 4 5 7 8 7 5 5 6 7 7 8 9 10 11 11 11 11 11 11 11 11 11 10 10 10 10 10 10
4 4 3 5 8 7 7 7 3 5 7 8 6 6 12 10 5 8 7 3 5 6 5 7 11 10 9 8 7 8 9 10 11 9 5 2 4 4 5 6 5 7 7 4 3 3 2 1 2 4 5 5 3 3 2 4 7 8 8 9 10 8 5 5 6 7 9 10 11 12 13 14 14 14 14 14 14 16 17 16 15 15 15 14 15 17
7 6 4 6 6 2 3 6 4 6 7 14 13 5 7 8 7 6 3 2 3 5 6 7 8 6 6 7 7 8 8 9 8 8 8 6 4 4 6 6 5 5 5 3 2 3 4 4 6 7 8 7 6 5 5 8 11 11 10 10 10 7 5 5 6 8 10 12 14 15 15 16 16 16 17 16 17 19 20 20 20 19 19 18 19 21
5 7 5 5 5 5 6 9 7 4 7 16 15 8 10 8 4 7 7 4 3 4 5 6 6 5 7 7 7 7 7 7 8 8 8 6 4 5 5 6 5 4 4 3 4 5 7 7 8 9 10 10 9 8 8 9 11 12 11 9 7 4 5 6 6 9 11 13 14 15 16 17 18 18 19 18 19 21 21 21 22 22 21 20 20 21
6 8 6 5 6 6 5 6 2 0 6 13 11 9 14 12 5 6 8 6 4 5 5 5 6 6 7 7 6 6 6 7 7 8 7 5 4 5 5 5 6 5 5 5 6 8 9 10 11 11 12 12 11 11 11 10 12 12 11 9 7 6 7 7 8 10 12 13 14 14 15 17 18 19 19 19 20 21 21 22 23 22 21 21 21 20
3 3 3 2 2 3 5 5 3 2 4 10 8 4 8 11 7 6 7 5 4 5 5 5 6 6 6 6 6 5 6 7 7 7 7 6 4 4 5 5 4 5 6 6 8 10 12 12 12 12 13 12 12 13 13 12 13 13 11 9 9 8 8 9 11 12 13 13 14 13 14 16 17 18 19 19 20 20 20 20 21 21 20 20 19 18
2 3 3 2 2 3 6 10 8 5 5 8 8 3 2 4 5 4 6 5 5 6 5 5 5 5 6 6 7 7 7 7 6 7 7 5 4 4 5 4 4 5 6 7 10 12 13 12 10 10 11 11 11 13 14 14 15 14 11 11 11 10 9 10 12 12 13 13 13 13 14 15 15 16 18 19 20 19 18 18 18 19 19 18 16 15
3 5 5 4 5 7 8 8 6 6 9 10 10 7 3 4 5 4 4 4 4 4 4 4 5 5 5 5 7 7 7 6 6 7 7 5 4 4 5 5 5 5 6 8 11 12 12 11 9 9 10 10 10 12 13 14 14 13 12 12 11 11 11 11 11 11 11 11 11 12 13 14 15 16 17 18 18 18 18 16 16 17 18 16 15 14
5 6 6 6 6 7 9 7 2 3 7 10 9 7 4 4 6 6 4 6 5 4 4 4 4 5 5 5 6 6 5 7 7 7 6 5 5 5 5 5 5 6 7 8 10 11 10 10 11 11 11 10 10 12 14 15 14 13 13 12 11 12 12 11 9 10 10 10 10 11 12 13 15 16 16 16 16 16 16 15 15 16 17 16 16 15
7 8 7 6 7 10 12 9 8 5 4 6 8 8 8 8 7 6 4 5 5 6 6 6 5 4 4 6 5 5 6 8 7 6 6 6 6 6 6 6 5 6 7 9 9 10 11 11 12 12 12 11 11 12 14 15 14 14 13 12 11 10 10 10 9 9 10 11 12 12 13 13 14 15 15 15 14 13 13 12 12 13 15 16 15 15
9 10 9 8 10 12 9 7 9 8 5 6 9 12 12 9 7 7 7 6 7 7 6 6 6 4 5 7 6 7 8 9 7 6 6 5 5 6 7 8 7 6 8 10 11 11 12 12 12 12 11 10 11 13 15 15 14 14 12 11 11 10 9 9 9 9 10 10 11 13 13 13 14 14 13 13 14 13 12 10 9 9 11 12 12 12
Wind_Direction
175 188 196 206 210 209 207 207 218 230 300 273 244 248 226 223 243 204 212 263 167 189 232 220 237 240 227 228 238 251 245 223 237 240 242 248 246 247 245 243 243 240 246 257 262 261 251 249 250 249 248 247 246 246 244 241 240 239 237 236 237 238 236 232 229 229 230 229 228 227 229 233 236 237 237 238 239 240 241 242 241 241 242 242 243 243
177 202 207 210 211 212 211 210 217 226 250 263 301 328 245 224 242 211 196 246 187 195 244 223 250 255 238 231 239 251 258 246 231 233 242 242 242 243 242 249 251 249 261 270 270 264 255 253 251 249 248 245 245 247 244 241 242 240 237 236 236 236 233 232 231 229 229 230 228 227 230 233 235 236 236 237 239 239 240 240 240 241 242 242 242 243
196 213 211 210 208 208 211 205 205 217 235 248 256 272 263 222 247 263 205 240 172 194 250 226 251 262 243 227 232 237 252 253 230 223 237 241 246 247 241 246 253 257 264 265 264 260 253 252 252 249 247 245 246 249 246 244 244 240 237 237 236 233 232 234 233 230 232 233 231 231 234 235 235 237 239 240 242 241 241 240 241 242 242 242 241 241
202 214 212 204 192 198 209 191 183 208 229 232 229 239 246 196 161 277 266 218 198 222 246 226 251 266 252 233 232 227 242 258 248 229 232 235 239 245 242 238 242 246 253 256 258 259 253 251 252 249 247 247 247 247 247 245 243 239 238 239 237 233 233 234 234 233 235 234 232 234 236 237 238 241 243 245 246 244 243 242 242 242 242 241 240 239
216 213 199 189 184 194 198 169 176 202 222 224 220 225 238 226 188 259 272 203 250 265 270 312 291 273 247 240 244 231 235 254 256 247 243 238 235 241 244 240 237 238 242 250 254 256 254 249 250 250 251 251 248 247 248 247 244 240 240 241 240 237 236 236 236 236 235 231 230 232 233 235 239 243 243 244 244 241 240 241 242 242 241 239 239 239
226 207 163 184 194 188 185 186 195 199 214 229 221 219 229 227 219 232 137 135 280 276 245 169 270 274 254 236 236 220 213 235 247 251 249 242 235 235 241 241 239 241 242 245 252 256 257 254 255 257 257 253 249 250 253 253 248 245 246 246 244 240 239 240 239 237 233 228 228 226 224 225 228 233 235 236 238 237 236 239 241 241 240 239 239 238
224 207 164 187 191 182 188 201 203 194 205 234 210 206 219 220 229 230 183 165 223 257 289 146 223 271 276 249 232 202 207 224 229 242 247 244 238 232 233 237 236 240 244 245 251 254 254 253 254 258 258 253 251 255 258 257 253 251 252 251 248 244 243 243 242 238 232 229 228 225 224 226 225 229 235 238 239 238 238 240 241 240 240 240 239 238
193 203 195 188 184 188 196 203 202 185 199 235 181 167 197 209 223 224 198 207 233 260 322 167 206 260 273 261 232 179 205 228 225 233 245 245 239 237 236 237 235 235 237 242 248 250 250 246 241 246 253 253 255 259 261 261 259 257 257 255 251 247 246 246 244 239 234 230 229 228 228 229 230 232 239 243 242 241 241 242 242 242 241 241 240 239
180 199 203 192 186 193 199 203 192 175 202 237 166 150 186 204 214 213 203 225 242 250 247 213 190 239 263 261 232 175 217 233 226 227 240 245 240 238 240 238 237 236 233 236 243 248 251 249 243 243 249 255 258 262 264 265 265 264 262 260 255 250 249 248 246 241 237 235 233 231 229 231 234 236 241 246 245 244 244 242 242 243 242 241 241 241
202 207 199 189 194 196 197 201 182 178 205 218 154 148 140 170 187 194 205 219 223 236 234 211 192 221 262 258 230 201 234 236 232 228 235 244 243 235 238 239 240 244 242 238 240 245 250 253 253 251 252 257 261 264 265 267 268 268 267 264 259 257 255 252 248 242 239 237 234 232 231 232 236 238 242 245 246 245 244 243 242 242 241 240 239 240
283 264 184 179 206 197 180 191 186 188 191 134 131 149 30 58 133 173 198 209 217 234 234 216 200 204 253 261 234 216 243 243 235 233 233 239 244 238 237 240 241 244 246 243 240 244 251 256 259 259 258 259 261 263 265 266 268 270 269 267 264 263 260 255 251 245 240 237 234 233 233 234 237 239 240 242 243 242 241 241 242 241 241 238 238 239
257 260 178 191 212 176 147 171 241 179 163 130 132 162 199 176 163 235 125 204 223 229 228 220 209 203 231 257 242 196 235 242 225 230 234 227 232 234 233 235 236 237 242 244 243 245 251 258 260 260 260 262 264 265 265 266 269 270 269 267 265 264 261 257 253 248 242 238 235 234 235 235 237 239 239 239 241 241 239 239 241 241 241 238 237 237
230 225 223 314 257 165 162 185 133 69 150 176 159 161 193 199 197 212 197 216 236 240 234 212 205 211 231 254 260 234 227 234 223 222 221 220 227 227 227 231 232 232 237 241 243 245 245 250 256 258 259 262 265 267 268 269 271 272 272 268 262 262 261 258 254 250 245 241 237 236 236 237 238 238 239 239 240 242 240 240 241 240 239 237 235 235
223 238 225 271 289 185 176 184 189 157 171 191 181 176 197 193 206 218 206 223 235 242 249 194 186 214 231 245 252 249 240 235 236 228 213 218 228 225 225 231 234 234 234 236 240 245 246 245 248 252 257 260 262 266 270 273 275 275 274 270 264 264 264 260 257 253 248 244 241 239 238 238 238 238 238 239 240 242 242 241 241 241 240 238 236 236
197 229 204 194 213 190 189 195 191 169 173 194 187 183 201 198 212 218 207 225 237 251 260 171 174 205 198 207 236 249 249 233 234 234 216 218 231 234 245 249 245 243 238 237 240 243 245 246 247 250 256 261 264 269 273 275 276 275 274 273 268 268 269 266 262 258 252 249 246 242 240 240 239 238 239 239 240 241 242 242 242 242 241 240 239 240
202 238 211 195 193 169 188 201 175 148 172 202 181 191 211 209 215 236 223 180 195 297 280 183 214 221 214 257 275 279 291 250 242 239 226 231 233 232 254 253 242 240 237 237 240 245 248 248 251 254 259 267 273 276 276 275 276 274 274 274 272 272 272 270 267 262 257 254 250 245 243 241 240 239 239 239 240 241 242 243 242 242 242 242 242 243
200 236 204 186 200 191 190 191 172 167 174 181 193 203 213 200 203 241 266 183 195 266 236 188 241 274 268 281 276 257 250 250 261 257 237 241 239 227 240 245 241 237 235 235 237 244 249 252 257 261 267 274 277 277 276 277 278 277 276 276 274 274 273 270 268 265 261 257 253 249 246 243 241 240 239 240 240 241 242 243 243 243 243 243 244 244
184 223 204 158 203 216 184 154 178 196 170 160 202 197 155 65 138 192 255 243 244 256 245 203 221 231 228 253 268 255 243 231 240 247 242 251 250 238 240 245 246 243 239 239 240 246 254 262 269 271 273 272 272 274 276 280 284 285 283 280 277 276 274 271 269 266 264 259 254 252 249 245 243 241 240 241 241 242 242 243 244 243 243 243 243 244
169 215 286 183 188 190 118 132 194 226 186 151 203 183 156 168 187 185 216 228 227 237 244 236 234 226 213 229 270 265 255 237 221 226 244 251 247 242 245 249 251 249 247 245 245 255 267 269 267 265 266 269 272 276 279 284 289 289 290 289 284 282 280 276 272 268 265 262 258 255 252 249 245 243 242 242 242 242 242 243 244 243 243 244 243 243
167 193 269 282 153 145 141 166 201 207 201 268 193 173 181 225 202 195 204 224 227 229 238 241 240 232 213 209 226 248 257 254 210 191 234 245 241 238 239 244 243 241 249 248 236 249 253 252 255 256 261 270 276 281 286 290 293 294 297 298 295 293 291 285 277 270 267 264 260 258 256 252 249 245 243 242 242 241 241 243 243 243 244 244 244 243
130 188 233 315 359 178 172 192 204 200 196 192 179 176 191 207 191 185 209 227 230 228 237 245 242 232 213 194 205 232 255 261 226 190 213 230 235 237 236 241 244 244 258 254 222 231 238 242 255 260 265 273 278 285 291 294 298 301 304 305 304 302 299 293 286 278 271 267 263 260 257 255 252 249 246 244 243 241 243 244 244 244 245 245 244 243
131 189 206 176 176 200 192 201 218 213 199 190 191 188 191 195 185 211 227 219 218 222 226 244 249 247 244 214 203 221 245 265 240 204 218 229 235 245 248 247 247 241 252 249 229 235 247 253 266 273 276 278 281 288 294 299 305 309 311 312 310 307 303 300 295 288 280 274 267 262 260 257 254 251 248 246 244 243 243 244 244 245 244 244 245 243
129 137 168 171 182 203 232 249 266 218 184 189 208 200 202 206 191 207 222 206 201 217 219 245 260 257 244 221 219 232 240 261 223 202 221 240 240 249 260 260 254 246 248 250 242 245 252 258 270 278 283 283 285 288 294 302 307 309 313 316 315 312 310 307 302 296 287 278 272 267 264 261 257 253 250 247 246 245 245 245 245 244 243 244 245 244
133 119 152 173 158 284 298 309 342 20 131 176 214 202 205 212 205 212 221 206 211 209 199 237 252 245 246 228 224 249 253 250 243 219 216 236 242 247 257 264 261 257 262 267 269 266 262 263 269 274 277 278 280 282 287 296 301 305 311 317 319 317 316 315 309 302 294 285 279 274 269 264 260 256 252 250 249 248 248 248 247 246 244 245 245 244
195 185 159 146 115 99 297 315 322 282 193 194 210 206 206 209 210 219 228 229 241 206 192 226 244 234 255 260 241 265 280 265 251 235 219 234 253 260 263 267 259 258 270 280 285 286 280 275 268 261 259 261 264 270 277 286 293 299 307 316 321 322 322 321 313 303 297 292 286 280 274 269 265 259 256 254 254 253 253 252 252 250 248 247 246 246
197 192 172 177 182 185 198 208 213 207 195 196 208 211 212 209 206 211 218 222 222 197 195 218 240 246 274 286 279 276 277 271 258 240 224 237 267 280 283 281 270 263 267 268 270 273 271 268 259 250 246 246 250 259 270 280 287 293 301 310 319 322 324 324 316 304 296 291 288 282 277 273 268 263 260 258 258 258 257 257 256 255 253 251 250 249
186 207 202 201 206 206 206 212 202 157 161 187 195 204 210 208 204 202 210 223 217 212 222 222 223 245 262 267 266 264 265 274 274 263 250 238 254 270 273 277 285 288 288 289 289 287 284 282 280 277 273 267 265 266 270 276 282 289 297 305 314 320 322 322 318 309 299 288 283 280 278 277 274 269 267 265 264 263 263 262 261 259 258 256 253 252
180 214 210 209 224 230 223 216 172 146 176 197 196 204 210 205 200 201 212 221 212 217 237 230 220 236 247 249 252 255 256 264 271 272 273 258 243 251 262 279 292 291 287 288 285 284 285 286 290 294 295 294 292 290 287 286 290 296 302 308 312 315 317 318 315 311 306 294 285 284 285 285 282 278 277 275 273 271 269 268 267 264 262 259 257 255
190 215 209 206 225 234 229 203 168 168 184 193 194 205 209 199 196 202 215 222 216 217 234 234 226 230 239 246 251 253 252 254 261 269 278 275 261 253 259 273 274 270 273 274 273 279 286 288 290 289 290 295 297 298 297 297 298 302 305 306 306 307 310 313 309 304 304 300 295 294 294 291 287 283 281 279 276 274 273 272 272 269 266 263 261 259
182 214 209 200 221 234 225 193 182 186 182 191 202 206 202 195 196 203 215 222 223 227 232 236 239 238 238 248 255 253 250 251 259 265 270 272 264 228 212 235 248 255 265 272 276 283 285 284 284 281 282 288 289 290 292 293 294 297 299 300 301 301 304 305 300 295 292 291 292 293 292 289 286 281 278 275 271 268 268 269 270 270 269 267 265 263
189 215 206 192 217 236 222 193 191 189 176 191 207 204 197 192 195 206 215 219 223 230 233 238 249 254 247 244 252 258 258 253 260 263 261 261 256 240 237 245 249 251 256 266 274 277 275 275 278 278 278 276 276 279 282 284 287 289 291 294 296 300 302 300 295 291 286 283 282 283 286 285 281 277 272 268 264 260 258 260 264 268 270 271 269 267
192 210 191 169 210 235 219 197 191 171 144 206 215 190 186 189 197 206 210 212 213 217 227 236 243 250 247 240 246 259 258 250 257 262 262 265 267 262 258 256 250 243 240 245 252 257 262 266 269 272 274 273 273 273 275 280 284 284 285 288 291 296 298 294 292 291 288 287 284 282 284 283 281 278 272 267 264 258 253 253 256 262 268 271 272 271
185 197 178 166 206 237 220 187 175 150 151 238 225 205 197 197 203 207 210 216 213 206 213 224 227 236 245 241 238 250 251 245 252 257 259 268 274 252 233 240 246 243 236 235 239 246 255 261 262 264 268 272 274 274 276 279 282 282 282 284 286 289 290 287 283 281 281 282 280 277 279 281 281 280 275 271 270 268 264 259 254 254 261 266 270 272
186 198 201 184 206 236 197 149 151 174 214 227 215 207 207 204 196 198 213 221 216 210 216 229 235 239 244 239 230 239 248 246 248 257 257 254 256 249 238 236 242 246 247 247 245 246 250 256 262 268 270 272 275 278 282 283 282 282 282 282 281 281 280 276 269 264 264 267 271 271 274 281 281 274 272 273 272 271 270 267 263 258 260 264 267 271
189 195 197 186 196 217 161 144 167 208 220 223 211 203 209 209 198 201 224 227 216 210 219 233 241 238 237 240 235 233 246 252 255 263 258 241 241 251 255 252 252 257 266 270 258 250 249 251 258 267 271 275 281 285 288 287 285 283 281 278 276 272 268 263 256 252 254 258 272 289 305 338 337 304 286 281 277 275 270 267 265 261 260 264 268 272
191 193 191 186 173 154 145 178 201 227 248 244 260 151 183 201 203 210 231 235 220 204 210 224 236 238 237 243 245 232 238 260 273 265 254 248 246 247 252 257 261 265 267 263 259 256 255 255 259 266 274 283 290 293 291 288 284 280 278 275 270 264 259 253 252 260 267 271 286 306 334 21 38 44 24 344 309 292 281 276 271 258 248 249 256 265
199 194 191 201 203 177 173 201 221 340 336 258 236 206 182 194 199 200 227 245 226 202 208 221 233 240 241 245 249 245 241 286 297 271 258 252 243 235 239 251 258 260 258 260 265 269 269 271 274 278 284 291 296 296 293 289 283 276 273 270 265 259 255 252 261 282 298 304 310 318 337 15 58 73 73 64 38 358 330 320 308 272 242 228 221 232
205 200 195 201 204 146 156 200 209 233 251 243 230 205 176 179 177 164 197 254 237 205 205 218 230 238 241 242 245 242 176 42 267 264 259 233 208 210 226 246 251 247 254 268 279 282 285 292 294 293 293 296 299 300 297 292 284 273 266 264 264 264 268 283 302 315 324 334 342 348 0 27 75 90 97 100 90 75 63 52 47 49 47 121 190 207
212 232 210 204 191 129 173 210 200 206 239 243 221 180 159 162 149 133 170 255 241 199 195 211 225 231 232 235 231 189 126 207 248 254 234 161 163 164 174 247 267 252 252 270 279 283 293 304 307 301 300 302 306 309 305 296 283 266 258 271 292 332 2 4 3 5 10 23 28 29 33 44 67 90 101 99 91 85 82 76 69 64 62 65 73 86
205 199 190 202 197 175 189 214 218 228 246 238 192 173 165 152 131 124 188 253 222 176 184 200 213 224 227 224 201 153 171 216 241 251 199 141 165 179 185 240 269 268 267 278 280 281 290 304 310 310 320 323 321 320 314 299 271 241 215 54 52 42 29 21 21 28 41 58 69 76 76 71 70 78 88 90 86 83 82 80 78 74 71 71 72 73
204 192 179 202 204 191 194 211 242 253 239 217 194 169 140 120 118 156 206 228 183 176 191 193 201 221 226 207 174 182 209 222 238 257 125 115 170 271 252 251 260 265 274 286 291 283 281 298 322 5 18 3 353 342 329 307 103 76 73 73 59 44 37 42 55 62 67 72 77 84 86 83 80 79 83 87 90 89 86 84 86 87 85 86 88 85
188 186 181 197 199 195 198 201 237 273 227 175 151 152 144 137 167 203 202 164 159 183 187 179 197 218 218 200 194 208 224 235 249 272 293 231 208 229 256 266 269 268 268 272 284 267 228 157 67 62 46 41 57 53 73 113 93 71 62 53 39 29 34 61 80 86 84 78 76 78 81 81 82 83 85 88 89 88 85 84 86 90 92 95 95 89
182 180 189 195 185 160 177 179 200 263 213 147 126 140 192 193 189 175 141 97 176 172 148 169 206 212 189 199 216 221 235 256 263 271 276 256 212 206 238 255 261 259 249 231 226 204 165 123 83 64 52 54 68 76 99 113 100 84 70 48 30 22 32 46 65 85 88 82 75 72 73 75 77 79 82 85 85 85 83 82 82 82 83 84 84 80
186 183 190 202 186 167 188 196 201 227 171 146 141 171 210 211 171 140 143 159 202 189 154 173 214 210 180 193 214 218 232 253 260 265 270 258 217 211 229 239 240 239 223 196 188 176 157 128 97 80 69 68 74 78 91 105 100 89 73 52 42 55 60 51 53 68 77 78 74 70 69 70 71 73 75 79 84 85 83 80 78 74 71 70 71 70
206 191 176 184 197 197 207 215 224 71 161 165 168 188 195 194 170 132 142 148 185 205 178 167 199 208 189 186 196 203 218 233 244 258 269 261 220 205 214 225 224 211 190 171 162 160 153 135 117 102 85 77 81 84 85 90 88 74 54 43 54 76 82 77 68 63 63 65 66 67 67 67 68 69 70 74 78 80 78 76 74 70 64 63 63 62
234 195 124 123 204 256 271 251 244 318 214 194 193 192 185 186 174 137 138 152 183 190 172 161 182 193 184 178 186 210 230 236 248 263 271 269 250 215 207 216 209 190 180 167 154 151 145 132 121 110 95 85 86 88 87 87 83 70 53 50 59 69 82 87 79 71 65 61 59 61 65 66 65 65 67 69 71 73 73 72 71 68 64 62 61 60
259 199 148 129 156 194 243 242 223 213 224 215 216 244 241 216 212 168 156 176 186 172 173 188 188 177 170 170 184 218 240 244 254 270 276 269 248 220 204 202 198 191 184 170 158 153 145 132 122 115 105 95 88 89 90 87 84 80 77 75 74 73 77 80 78 75 72 67 62 59 59 61 61 61 63 63 64 66 68 69 70 67 63 61 61 60
193 174 163 172 176 184 221 248 232 200 205 210 213 221 222 230 237 212 165 157 153 154 178 200 186 169 172 183 192 212 241 252 246 254 266 260 236 218 206 201 197 192 184 172 163 156 147 137 130 121 110 100 93 91 89 84 81 83 87 89 91 90 83 73 66 63 63 62 61 59 58 59 58 56 57 58 59 59 58 59 64 67 64 60 60 62
129 157 179 180 182 213 237 241 188 190 223 223 224 233 235 221 228 223 171 133 133 167 206 224 213 187 192 211 201 192 224 251 246 241 248 243 220 205 200 194 183 177 173 166 162 157 147 136 128 118 106 99 96 92 86 80 75 75 77 81 89 94 89 76 61 49 41 37 36 39 46 52 53 53 52 51 54 58 59 58 59 63 65 65 63 63
146 179 188 166 180 223 236 211 167 164 217 227 226 234 235 224 222 228 203 160 176 201 205 214 228 215 213 231 215 185 218 250 245 226 226 227 211 196 189 179 167 163 159 152 149 145 134 125 120 114 105 99 95 89 82 76 70 67 67 68 72 78 80 74 62 48 39 33 26 25 30 37 43 46 46 43 42 46 56 64 64 62 64 68 68 64
190 189 176 175 204 221 215 170 159 173 195 206 207 215 221 217 209 224 237 227 218 213 195 193 206 210 225 238 217 193 218 243 233 205 215 221 198 180 175 168 162 158 153 147 140 130 122 120 118 112 105 101 96 89 80 71 64 59 56 55 57 61 65 64 58 45 35 29 24 22 24 29 34 37 39 39 35 31 32 39 45 50 56 62 66 63